Find Starlink 1465

NORAD ID: 45731 Int'l Des: 2020-038 Owner: SPXS Country: US Constellation: starlink operational
LEOCIRCULAR

Live-Position

3D-Globus wird geladen...

Über Starlink 1465

Beschreibung wird geladen...

Nächste Überflüge

Passes for default location (London). Set your location on the main map for personalized predictions.

Höhenverlauf

Loading altitude history...

Zweizeiliger Elementsatz

1 45731U 20038B 26125.92631651 .00078785 00000-0 98218-3 0 9998
2 45731 53.0467 306.6073 0002533 166.6268 193.4811 15.59230875325282
Epoch: 5. Mai 2026 • Age: 6 hours

Aktueller Status

Höhe 403.2 km
Geschwindigkeit 7.67 km/s
Subsatellitenpunkt -37.26°S, 15.95°W
Startdatum 13. Juni 2020
Alter 5.8 years
Typ internet

Technische Details

Klassifizierung Payload
Masse 260.00 kg
Trockenmasse 248.00 kg
Gesamtmasse 260.00 kg
Länge 0.20 m
Durchmesser 2.80 m
Spannweite 9.00 m
Form Box + pan
Hersteller SPXS
Bus-Typ Starlink
Phasenstatus In Orbit
Besitzer/Staat SPXS/US

Most Searched